TimeCDT,TemperatureF,Dew PointF,Humidity,Sea Level PressureIn,VisibilityMPH,Wind Direction,Wind SpeedMPH,Gust SpeedMPH,PrecipitationIn,Events,Conditions,WindDirDegrees,DateUTC
12:15 AM,57.2,39.2,51,30.00,10.0,West,6.9,-,N/A,,Partly Cloudy,270,2013-10-07 05:15:00
12:35 AM,55.4,39.2,54,30.00,10.0,West,4.6,-,N/A,,Clear,280,2013-10-07 05:35:00
12:55 AM,55.4,39.2,54,30.00,10.0,WNW,6.9,-,N/A,,Clear,290,2013-10-07 05:55:00
1:15 AM,55.4,39.2,54,30.00,10.0,West,4.6,-,N/A,,Clear,280,2013-10-07 06:15:00
1:35 AM,55.4,39.2,54,30.01,10.0,West,5.8,-,N/A,,Clear,280,2013-10-07 06:35:00
1:55 AM,55.4,39.2,54,30.01,10.0,WNW,4.6,-,N/A,,Clear,290,2013-10-07 06:55:00
2:15 AM,55.4,39.2,54,30.01,10.0,NW,4.6,-,N/A,,Clear,320,2013-10-07 07:15:00
2:55 AM,53.6,39.2,58,30.01,10.0,WNW,3.5,-,N/A,,Clear,300,2013-10-07 07:55:00
3:15 AM,53.6,39.2,58,30.01,10.0,West,3.5,-,N/A,,Clear,260,2013-10-07 08:15:00
3:35 AM,51.8,39.2,62,30.01,10.0,West,3.5,-,N/A,,Clear,270,2013-10-07 08:35:00
3:55 AM,51.8,37.4,58,30.02,10.0,Calm,Calm,-,N/A,,Clear,0,2013-10-07 08:55:00
4:15 AM,50.0,39.2,66,30.02,10.0,SW,3.5,-,N/A,,Clear,230,2013-10-07 09:15:00
4:35 AM,48.2,37.4,66,30.03,10.0,WSW,4.6,-,N/A,,Clear,250,2013-10-07 09:35:00
4:55 AM,48.2,37.4,66,30.04,10.0,West,4.6,-,N/A,,Clear,260,2013-10-07 09:55:00
5:15 AM,48.2,37.4,66,30.04,10.0,West,3.5,-,N/A,,Clear,270,2013-10-07 10:15:00
5:35 AM,48.2,37.4,66,30.05,10.0,Calm,Calm,-,N/A,,Clear,0,2013-10-07 10:35:00
5:55 AM,48.2,37.4,66,30.05,10.0,WSW,3.5,-,N/A,,Clear,240,2013-10-07 10:55:00
6:15 AM,46.4,37.4,71,30.05,10.0,Calm,Calm,-,N/A,,Clear,0,2013-10-07 11:15:00
6:35 AM,46.4,37.4,71,30.06,10.0,Calm,Calm,-,N/A,,Clear,0,2013-10-07 11:35:00
6:55 AM,46.4,37.4,71,30.06,10.0,WNW,4.6,-,N/A,,Clear,300,2013-10-07 11:55:00
7:15 AM,46.4,37.4,71,30.06,10.0,Calm,Calm,-,N/A,,Clear,0,2013-10-07 12:15:00
7:35 AM,46.4,37.4,71,30.07,10.0,Calm,Calm,-,N/A,,Clear,0,2013-10-07 12:35:00
7:55 AM,48.2,39.2,71,30.08,10.0,WNW,3.5,-,N/A,,Clear,290,2013-10-07 12:55:00
8:15 AM,51.8,39.2,62,30.08,10.0,NW,5.8,-,N/A,,Clear,310,2013-10-07 13:15:00
8:35 AM,53.6,39.2,58,30.09,10.0,NW,4.6,-,N/A,,Clear,310,2013-10-07 13:35:00
8:55 AM,55.4,39.2,54,30.10,10.0,NW,6.9,-,N/A,,Clear,320,2013-10-07 13:55:00
9:15 AM,57.2,39.2,51,30.11,10.0,North,9.2,-,N/A,,Clear,350,2013-10-07 14:15:00
9:35 AM,57.2,39.2,51,30.12,10.0,North,10.4,16.1,N/A,,Clear,360,2013-10-07 14:35:00
9:55 AM,57.2,39.2,51,30.12,10.0,North,11.5,16.1,N/A,,Clear,350,2013-10-07 14:55:00
10:15 AM,57.2,39.2,51,30.13,10.0,NNW,8.1,16.1,N/A,,Clear,340,2013-10-07 15:15:00
10:35 AM,59.0,39.2,48,30.13,10.0,North,10.4,-,N/A,,Clear,350,2013-10-07 15:35:00
10:55 AM,60.8,39.2,45,30.13,10.0,NNW,8.1,-,N/A,,Clear,340,2013-10-07 15:55:00
11:55 AM,62.6,41.0,45,30.13,10.0,North,5.8,-,N/A,,Clear,10,2013-10-07 16:55:00
12:55 PM,64.4,42.8,45,30.12,10.0,North,8.1,-,N/A,,Clear,10,2013-10-07 17:55:00
1:15 PM,64.4,42.8,45,30.12,10.0,North,6.9,-,N/A,,Clear,360,2013-10-07 18:15:00
1:35 PM,66.2,42.8,43,30.11,10.0,NNE,5.8,-,N/A,,Clear,30,2013-10-07 18:35:00
1:55 PM,66.2,42.8,43,30.11,10.0,North,9.2,-,N/A,,Clear,10,2013-10-07 18:55:00
2:55 PM,69.8,42.8,38,30.11,8.0,North,9.2,-,N/A,,Clear,360,2013-10-07 19:55:00
3:15 PM,69.8,42.8,38,30.11,10.0,North,8.1,-,N/A,,Clear,350,2013-10-07 20:15:00
3:35 PM,69.8,42.8,38,30.10,10.0,North,6.9,-,N/A,,Clear,10,2013-10-07 20:35:00
3:55 PM,69.8,42.8,38,30.10,10.0,NNE,4.6,-,N/A,,Clear,20,2013-10-07 20:55:00
4:15 PM,71.6,42.8,35,30.10,10.0,NNE,4.6,-,N/A,,Clear,20,2013-10-07 21:15:00
4:35 PM,71.6,41.0,33,30.09,5.0,NE,6.9,-,N/A,,Clear,50,2013-10-07 21:35:00
4:55 PM,71.6,39.2,31,30.09,10.0,NE,5.8,-,N/A,,Clear,50,2013-10-07 21:55:00
5:15 PM,71.6,41.0,33,30.09,10.0,NNE,4.6,-,N/A,,Clear,30,2013-10-07 22:15:00
5:55 PM,69.8,41.0,35,30.10,10.0,ENE,4.6,-,N/A,,Clear,60,2013-10-07 22:55:00
6:15 PM,68.0,41.0,37,30.10,10.0,NE,3.5,-,N/A,,Clear,40,2013-10-07 23:15:00
6:35 PM,66.2,42.8,43,30.10,10.0,Calm,Calm,-,N/A,,Clear,0,2013-10-07 23:35:00
7:15 PM,62.6,39.2,42,30.10,10.0,Calm,Calm,-,N/A,,Clear,0,2013-10-08 00:15:00
7:35 PM,57.2,42.8,59,30.11,10.0,Calm,Calm,-,N/A,,Clear,0,2013-10-08 00:35:00
7:55 PM,55.4,42.8,63,30.11,10.0,Calm,Calm,-,N/A,,Clear,0,2013-10-08 00:55:00
8:15 PM,57.2,42.8,59,30.12,10.0,Calm,Calm,-,N/A,,Clear,0,2013-10-08 01:15:00
8:35 PM,55.4,42.8,63,30.13,10.0,Calm,Calm,-,N/A,,Clear,0,2013-10-08 01:35:00
8:55 PM,55.4,42.8,63,30.13,10.0,Calm,Calm,-,N/A,,Clear,0,2013-10-08 01:55:00
9:15 PM,53.6,42.8,67,30.14,10.0,Calm,Calm,-,N/A,,Clear,0,2013-10-08 02:15:00
10:15 PM,51.8,42.8,71,30.15,10.0,Calm,Calm,-,N/A,,Clear,0,2013-10-08 03:15:00
10:35 PM,51.8,41.0,67,30.15,10.0,Calm,Calm,-,N/A,,Clear,0,2013-10-08 03:35:00
10:55 PM,51.8,41.0,67,30.15,10.0,Calm,Calm,-,N/A,,Clear,0,2013-10-08 03:55:00
11:15 PM,50.0,41.0,71,30.15,10.0,Calm,Calm,-,N/A,,Clear,0,2013-10-08 04:15:00
11:35 PM,50.0,41.0,71,30.15,10.0,Calm,Calm,-,N/A,,Clear,0,2013-10-08 04:35:00
11:55 PM,48.2,39.2,71,30.15,10.0,Calm,Calm,-,N/A,,Clear,0,2013-10-08 04:55:00